Regional Weather Roundup
Issued by NWS

Home | Current Version | Previous Version | Text Only | Print | Product List | Glossary On
Versions: 1 2 3 4 5 6 7 8 9 10 11 12 13 14 15 16 17 18 19 20 21 22 23 24 25 26 27 28 29 30 31 32 33 34 35 36 37 38 39 40 41 42 43 44 45 46 47 48 49 50
000
ASUS45 KPSR 241810
RWRAZ

ARIZONA HOURLY REGIONAL WEATHER ROUNDUP
NATIONAL WEATHER SERVICE PHOENIX AZ
1100 AM MST FRI NOV 24 2017

NOTE: FAIR INDICATES FEW OR NO CLOUDS BELOW 12,000 FEET WITH NO
SIGNIFICANT WEATHER AND/OR OBSTRUCTIONS TO VISIBILITY.

AZZ001>003-036-241900-
NORTHWEST ARIZONA

CITY           SKY/WX    TMP DP  RH WIND       PRES   REMARKS
BULLHEAD CITY  SUNNY     68  39  34 CALM      29.98S
KINGMAN        SUNNY     76  33  21 SW12      30.06R
6HR MIN TEMP:  44; 6HR MAX TEMP:  76;

$$

AZZ004>008-015-016-018-241900-
NORTH CENTRAL ARIZONA

CITY           SKY/WX    TMP DP  RH WIND       PRES   REMARKS
GRAND CANYON   SUNNY     62  25  24 SW8       30.20F
6HR MIN TEMP:  23; 6HR MAX TEMP:  62;

WILLIAMS       SUNNY     66  21  18 SW10      30.22S
PRESCOTT       SUNNY     66  26  22 CALM      30.14F
6HR MIN TEMP:  39; 6HR MAX TEMP:  66;

FLAGSTAFF      SUNNY     66  19  16 W9        30.22S
6HR MIN TEMP:  28; 6HR MAX TEMP:  66;

PAYSON         SUNNY     70  27  19 CALM      30.16F
PAGE           SUNNY     54  31  41 VRB3      30.10S
6HR MIN TEMP:  40; 6HR MAX TEMP:  54;

$$

AZZ009>014-017-241900-
NORTHEAST ARIZONA

CITY           SKY/WX    TMP DP  RH WIND       PRES   REMARKS
WINSLOW        SUNNY     58  24  27 E6        30.13F
6HR MIN TEMP:  33; 6HR MAX TEMP:  58;

SAINT JOHNS    SUNNY     57  18  21 CALM      30.15F
6HR MIN TEMP:  25; 6HR MAX TEMP:  58;

WINDOW ROCK    SUNNY     61  24  24 S7        30.16F
6HR MIN TEMP:  20; 6HR MAX TEMP:  61;

SHOW LOW       SUNNY     68  23  18 SW9       30.20S
$$

AZZ540-542>544-546-548-241900-
GREATER PHOENIX AREA

CITY           SKY/WX    TMP DP  RH WIND       PRES   REMARKS
PHOENIX        MOSUNNY   74  34  23 E6        29.96S
6HR MIN TEMP:  58; 6HR MAX TEMP:  74;

BUCKEYE        SUNNY     75  73  94 E13       29.96F
GLENDALE       MOSUNNY   73  36  25 CALM      29.98F
LUKE AFB       SUNNY     74  36  25 NE5       29.95F
6HR MIN TEMP:  51; 6HR MAX TEMP:  74;

DEER VALLEY    SUNNY     75  32  20 S5        29.97S
6HR MIN TEMP:  52; 6HR MAX TEMP:  75;

SCOTTSDALE     SUNNY     73  38  27 S5        29.98F
6HR MIN TEMP:  55; 6HR MAX TEMP:  73;

CHANDLER       SUNNY     70  34  26 CALM      29.97F
$$

AZZ539-553-241900-
SOUTHWEST MARICOPA COUNTY AND PINAL COUNTY

CITY           SKY/WX    TMP DP  RH WIND       PRES   REMARKS
CASA GRANDE    NOT AVBL
$$

AZZ503-504-507>509-241900-
SOUTHEAST ARIZONA

CITY           SKY/WX    TMP DP  RH WIND       PRES   REMARKS
TUCSON         SUNNY     75  27  17 S3        30.03F
6HR MIN TEMP:  52; 6HR MAX TEMP:  75;

DAVIS-MONTHAN  SUNNY     77  26  15 S6        30.01F
6HR MIN TEMP:  52; 6HR MAX TEMP:  77;

RYAN FIELD     SUNNY     75  30  19 E5        30.02F
NOGALES        SUNNY     77  25  14 S3        30.08F
6HR MIN TEMP:  41; 6HR MAX TEMP:  77;

SIERRA VISTA   SUNNY     78  19  11 CALM      30.12F
6HR MIN TEMP:  47; 6HR MAX TEMP:  78;

DOUGLAS        SUNNY     67  24  19 S6        30.11F
6HR MIN TEMP:  33; 6HR MAX TEMP:  67;

SAFFORD        SUNNY     65  25  22 S7        30.05F
6HR MIN TEMP:  39; 6HR MAX TEMP:  65;

$$

AZZ532-241900-
SOUTHWEST ARIZONA

CITY           SKY/WX    TMP DP  RH WIND       PRES   REMARKS
YUMA           SUNNY     78  38  23 N8        29.91S
6HR MIN TEMP:  58; 6HR MAX TEMP:  78;

$$

CAZ041-043-047-048-061-525>527-560>570-241900-
SOUTHERN CALIFORNIA

CITY           SKY/WX    TMP DP  RH WIND       PRES   REMARKS
DOWNTOWN L.A.  SUNNY     78  39  24 CALM      29.93S
6HR MIN TEMP:  59; 6HR MAX TEMP:  78;

L.A. AIRPORT   MOSUNNY   78  45  30 E7        29.93S
6HR MIN TEMP:  58; 6HR MAX TEMP:  79;

SAN DIEGO      MOSUNNY   74  42  31 CALM      29.95S
6HR MIN TEMP:  60; 6HR MAX TEMP:  74;

BURBANK        SUNNY     80  40  23 CALM      29.95S
6HR MIN TEMP:  58; 6HR MAX TEMP:  80;

ONTARIO        MOSUNNY   75  36  24 CALM      29.96S
6HR MIN TEMP:  56; 6HR MAX TEMP:  75;

RIVERSIDE      SUNNY     75  41  29 CALM      29.96S
6HR MIN TEMP:  56; 6HR MAX TEMP:  75;

PALM SPRINGS   SUNNY     82  37  20 E3        29.93S
6HR MIN TEMP:  62; 6HR MAX TEMP:  83;

EL CENTRO NAS  MOSUNNY   77  34  21 CALM      29.92S
6HR MIN TEMP:  54; 6HR MAX TEMP:  77;

IMPERIAL       SUNNY     76  37  24 CALM      29.90R
6HR MIN TEMP:  56; 6HR MAX TEMP:  76;

BLYTHE         SUNNY     69  38  32 CALM      29.94F
6HR MIN TEMP:  50; 6HR MAX TEMP:  70;

NEEDLES        SUNNY     71  33  24 CALM      29.98S
6HR MIN TEMP:  56; 6HR MAX TEMP:  71;

$$

NVZ020-UTZ003-241900-
SOUTHERN NEVADA-UTAH

CITY           SKY/WX    TMP DP  RH WIND       PRES   REMARKS
LAS VEGAS      PTSUNNY   68  37  32 CALM      30.02S
6HR MIN TEMP:  54; 6HR MAX TEMP:  68;

SALT LAKE CITY PTSUNNY   62  38  40 N9        30.06R
6HR MIN TEMP:  44; 6HR MAX TEMP:  62;

$$

NMZ009-TXZ055-241900-
NEW MEXICO-WEST TEXAS

CITY           SKY/WX    TMP DP  RH WIND       PRES   REMARKS
ALBUQUERQUE    MOSUNNY   54  29  38 S6        30.11F
6HR MIN TEMP:  35; 6HR MAX TEMP:  54;

EL PASO        MOSUNNY   67  26  21 S14       30.05F
6HR MIN TEMP:  40; 6HR MAX TEMP:  67;

$$


........................KEY........................
SKY/WX - SKY CONDITION/WEATHER
TMP    - TEMPERATURE IN FAHRENHEIT
DP     - DEW POINT IN FAHRENHEIT
RH     - RELATIVE HUMIDITY IN PERCENT
WIND   - DIRECTION AND SPEED IN MILES PER HOUR (MPH)
VRB    - VARIABLE WIND DIRECTION
PRES   - MEAN SEA LEVEL PRESSURE IN INCHES OF MERCURY
         F - FALLING PRESSURE   R - RISING PRESSURE
         S - STEADY PRESSURE
VSB    - VISIBILITY IN MILES
HX     - HEAT INDEX IN FAHRENHEIT
WCI    - WIND CHILL INDEX IN FAHRENHEIT
TC     - TEMPERATURE IN CELSIUS WHICH IS ALSO KNOWN AS
         TEMPERATURE IN CENTIGRADE
AFB    - AIR FORCE BASE
         LUKE AFB IS LUKE AIR FORCE BASE
         DAVIS-MONTHAN IS DAVIS-MONTHAN AIR FORCE BASE
NAS    - NAVAL AIR STATION
         EL CENTRO NAS IS EL CENTRO NAVAL AIR STATION
N/A    - NOT AVAILABLE




USA.gov is the U.S. government's official web portal to all federal, state and local government web resources and services.